Rochester, NH

2:32 AM EST on February 18, 2018 (GMT -0500)
Skyhaven

Weather History for KDAW - July, 2013

Change the Weather History Date:

Monday, July 1, 2013

  Actual Average (KPSM) Record (KPSM)
Temperature  
Mean Temperature 74 °F -  
Max Temperature 80 °F 78 °F 90 °F (2012)
Min Temperature 69 °F 59 °F 39 °F (1988)
Cooling Degree Days 10    
Growing Degree Days 24 (Base 50)    
Moisture  
Dew Point 70 °F    
Average Humidity 89    
Maximum Humidity 96    
Minimum Humidity 69    
Precipitation  
Precipitation 1.35 in - - ()
Sea Level Pressure  
Sea Level Pressure 30.02 in    
Wind  
Wind Speed 1 mph (ESE)    
Max Wind Speed 10 mph    
Max Gust Speed -    
Visibility 7 miles    
Events Rain , Thunderstorm    
Averages and records for this station are not official NWS values.
T = Trace of Precipitation, MM = Missing Value Source: NWS Daily Summary

Daily Weather History Graph

Daily Weather History Graph

Search for Another Location

Airport or City:

Trip Planner

Search our weather history database for the weather conditions in past years. The results will help you decide how hot, cold, wet, or windy it might be!

Date:

Astronomy

Jul. 01, 2013 Rise Set
Actual Time 5:07 AM EDT 8:27 PM EDT
Civil Twilight 4:32 AM EDT 9:02 PM EDT
Nautical Twilight 3:46 AM EDT 9:48 PM EDT
Astronomical Twilight 2:49 AM EDT 10:45 PM EDT
Moon 12:42 AM EDT (7/1) 2:34 PM EDT (7/1)
Length of Visible Light 16h 30m
Length of Day
15h 20m
Waning Crescent, 35% of the Moon is Illuminated
Jul 1
Waning Crescent
Jul 8
New
Jul 15
First Quarter
Jul 22
Full
Jul 29
Last Quarter

Hourly Weather History & Observations

Time (EDT) Temp. Heat Index Dew Point Humidity Pressure Visibility Wind Dir Wind Speed Gust Speed Precip Events Conditions
12:51 AM 71.1 °F - 66.9 °F 87% 29.92 in 10.0 mi Calm Calm - N/A   Scattered Clouds
1:22 AM 71.6 °F - 66.2 °F 83% 29.94 in 10.0 mi Calm Calm - N/A   Mostly Cloudy
1:51 AM 72.0 °F - 68.0 °F 87% 29.93 in 10.0 mi Calm Calm - N/A   Overcast
2:27 AM 71.6 °F - 68.0 °F 88% 29.94 in 10.0 mi Calm Calm - N/A   Overcast
2:51 AM 71.1 °F - 68.0 °F 90% 29.93 in 10.0 mi Calm Calm - N/A   Mostly Cloudy
3:51 AM 70.0 °F - 68.0 °F 93% 29.92 in 9.0 mi Calm Calm - N/A   Partly Cloudy
4:51 AM 70.0 °F - 66.9 °F 90% 29.94 in 7.0 mi Calm Calm - N/A   Clear
5:51 AM 69.1 °F - 66.9 °F 93% 29.95 in 6.0 mi Calm Calm - N/A   Clear
6:51 AM 73.0 °F - 69.1 °F 87% 29.96 in 10.0 mi Calm Calm - N/A   Partly Cloudy
7:29 AM 73.4 °F - 69.8 °F 88% 29.99 in 10.0 mi Calm Calm - N/A   Partly Cloudy
7:46 AM 73.4 °F - 69.8 °F 88% 29.99 in 10.0 mi Calm Calm - N/A   Mostly Cloudy
7:51 AM 73.9 °F - 69.1 °F 85% 29.98 in 10.0 mi Variable 3.5 mph - N/A   Mostly Cloudy
8:19 AM 75.2 °F - 69.8 °F 83% 29.99 in 10.0 mi Calm Calm - N/A   Overcast
8:51 AM 75.9 °F - 69.1 °F 79% 29.99 in 10.0 mi Calm Calm - N/A   Mostly Cloudy
9:16 AM 77.0 °F - 69.8 °F 78% 30.00 in 10.0 mi Calm Calm - N/A   Mostly Cloudy
9:26 AM 77.0 °F - 69.8 °F 78% 30.00 in 10.0 mi Calm Calm - N/A   Mostly Cloudy
9:51 AM 78.1 °F - 69.1 °F 74% 29.99 in 10.0 mi Calm Calm - N/A   Mostly Cloudy
10:49 AM 80.6 °F 83.9 °F 69.8 °F 70% 30.01 in 10.0 mi Calm Calm - N/A   Mostly Cloudy
10:51 AM 80.1 °F 82.9 °F 69.1 °F 69% 30.00 in 10.0 mi Calm Calm - N/A   Mostly Cloudy
11:03 AM 78.8 °F - 69.8 °F 74% 30.01 in 10.0 mi Calm Calm - N/A   Overcast
11:51 AM 78.1 °F - 70.0 °F 76% 30.01 in 10.0 mi Calm Calm - N/A   Overcast
12:24 PM 78.8 °F - 69.8 °F 74% 30.01 in 10.0 mi NNW 3.5 mph - N/A   Overcast
12:51 PM 78.1 °F - 70.0 °F 76% 30.00 in 10.0 mi Calm Calm - N/A   Overcast
1:51 PM 77.0 °F - 72.0 °F 84% 30.00 in 7.0 mi Calm Calm - 0.01 in Rain Light Rain
2:19 PM 75.2 °F - 73.4 °F 94% 30.03 in 2.5 mi Calm Calm - 0.03 in Rain , Thunderstorm Rain
2:35 PM 75.2 °F - 73.4 °F 94% 30.03 in 3.0 mi SE 3.5 mph - 0.07 in Rain Rain
2:47 PM 73.4 °F - 71.6 °F 94% 30.03 in 3.0 mi SE 5.8 mph - 0.10 in Rain Rain
2:51 PM 73.0 °F - 71.1 °F 93% 30.02 in 3.0 mi ESE 8.1 mph - 0.11 in Rain Rain
3:17 PM 73.4 °F - 71.6 °F 94% 30.03 in 8.0 mi SE 5.8 mph - 0.02 in Rain Light Rain
3:41 PM 73.4 °F - 71.6 °F 94% 30.03 in 7.0 mi SE 4.6 mph - 0.03 in Rain Light Rain
3:49 PM 73.4 °F - 71.6 °F 94% 30.03 in 7.0 mi SE 3.5 mph - 0.03 in Rain Light Rain
3:51 PM 73.0 °F - 71.1 °F 93% 30.02 in 7.0 mi ESE 4.6 mph - 0.03 in Rain Light Rain
4:38 PM 73.4 °F - 71.6 °F 94% 30.02 in 7.0 mi ESE 4.6 mph - 0.01 in Rain Light Rain
4:51 PM 73.0 °F - 71.1 °F 93% 30.01 in 7.0 mi ESE 5.8 mph - 0.01 in Rain Light Rain
5:05 PM 73.4 °F - 71.6 °F 94% 30.02 in 9.0 mi SE 4.6 mph - 0.01 in Rain Light Rain
5:14 PM 73.4 °F - 71.6 °F 94% 30.02 in 8.0 mi East 4.6 mph - 0.01 in Rain Light Rain
5:48 PM 73.4 °F - 71.6 °F 94% 30.03 in 3.0 mi SE 4.6 mph - 0.04 in Rain Light Rain
5:51 PM 73.0 °F - 71.1 °F 93% 30.02 in 4.0 mi SE 4.6 mph - 0.04 in Rain Light Rain
6:00 PM 73.4 °F - 71.6 °F 94% 30.03 in 9.0 mi SE 3.5 mph - 0.01 in Rain Light Rain
6:08 PM 71.6 °F - 69.8 °F 94% 30.03 in 4.0 mi East 4.6 mph - 0.02 in Rain Rain
6:51 PM 73.0 °F - 71.1 °F 93% 30.02 in 10.0 mi Calm Calm - 0.02 in   Overcast
7:47 PM 71.6 °F - 69.8 °F 94% 30.04 in 10.0 mi Calm Calm - N/A   Overcast
7:51 PM 72.0 °F - 70.0 °F 93% 30.03 in 10.0 mi Calm Calm - N/A   Overcast
8:07 PM 71.6 °F - 69.8 °F 94% 30.05 in 10.0 mi Calm Calm - N/A   Mostly Cloudy
8:27 PM 71.6 °F - 69.8 °F 94% 30.05 in 10.0 mi Calm Calm - N/A   Overcast
8:51 PM 72.0 °F - 70.0 °F 93% 30.05 in 10.0 mi Calm Calm - N/A   Mostly Cloudy
8:58 PM 71.6 °F - 69.8 °F 94% 30.07 in 10.0 mi Calm Calm - N/A   Mostly Cloudy
9:09 PM 71.6 °F - 69.8 °F 94% 30.07 in 10.0 mi Calm Calm - 0.00 in Rain Light Rain
9:51 PM 71.1 °F - 70.0 °F 96% 30.06 in 5.0 mi Calm Calm - 0.04 in Rain Rain
10:20 PM 71.6 °F - 69.8 °F 94% 30.07 in 2.5 mi East 3.5 mph - 0.10 in Rain Rain
10:27 PM 71.6 °F - 69.8 °F 94% 30.08 in 5.0 mi Calm Calm - 0.12 in Rain Rain
10:32 PM 71.6 °F - 69.8 °F 94% 30.08 in 2.5 mi NNW 5.8 mph - 0.18 in Rain Rain
10:37 PM 71.6 °F - 69.8 °F 94% 30.08 in 1.8 mi NNW 4.6 mph - 0.25 in Rain Heavy Rain
10:47 PM 71.6 °F - 69.8 °F 94% 30.07 in 1.2 mi NW 10.4 mph - 0.44 in Rain Heavy Rain
10:51 PM 71.1 °F - 69.1 °F 93% 30.06 in 1.5 mi NNW 9.2 mph - 0.51 in Rain Heavy Rain
10:58 PM 71.6 °F - 69.8 °F 94% 30.08 in 1.0 mi North 3.5 mph - 0.25 in Rain Heavy Rain
11:05 PM 71.6 °F - 69.8 °F 94% 30.07 in 0.8 mi North 5.8 mph - 0.50 in Rain Heavy Rain
11:15 PM 71.6 °F - 69.8 °F 94% 30.08 in 1.8 mi SSE 3.5 mph - 0.57 in Rain Heavy Rain
11:20 PM 71.6 °F - 69.8 °F 94% 30.07 in 3.0 mi SE 4.6 mph - 0.58 in Rain Light Rain
11:28 PM 71.6 °F - 69.8 °F 94% 30.08 in 4.0 mi Calm Calm - 0.58 in Rain Light Rain
11:38 PM 71.6 °F - 69.8 °F 94% 30.08 in 5.0 mi SSE 4.6 mph - 0.58 in Rain Light Rain
11:40 PM 71.6 °F - 69.8 °F 94% 30.08 in 5.0 mi Calm Calm - 0.58 in Rain Light Rain
11:51 PM 71.1 °F - 70.0 °F 96% 30.06 in 10.0 mi SE 3.5 mph - 0.58 in   Overcast